Regional Weather Roundup
Issued by NWS State College, PA

Home | Current Version | Previous Version | Text Only | Print | Product List | Glossary On
Versions: 1 2 3 4 5 6 7 8 9 10 11 12 13 14 15 16 17 18 19 20 21 22 23 24 25 26 27 28 29 30 31 32 33 34 35 36 37 38 39 40 41 42 43 44 45 46 47 48 49 50
000
ASUS41 KCTP 230110
RWRCTP
NATIONAL WEATHER SERVICE STATE COLLEGE PA
900 PM EDT FRI SEP 22 2017

Note: "fair" indicates few or no clouds below 12,000 feet with no
significant weather and/or obstructions to visibility.

* = STATION THAT DOES NOT REPORT PRECIPITATION /E.G. RAIN...SNOW...ETC/
    THUNDER OR FOG.

PAZ002>004-007>009-013>016-020>023-029>032-230200-
WESTERN PENNSYLVANIA

CITY           SKY/WX    TMP DP  RH WIND       PRES   REMARKS
ERIE           CLEAR     66  59  78 CALM      30.10R
MEADVILLE      CLEAR     70  56  61 NE3       30.13R
FRANKLIN*      CLEAR     70  57  64 N3        30.14R
NEW CASTLE     FAIR      70  60  70 CALM      30.12R
BEAVER COUNTY  NOT AVBL
BUTLER*        PTCLDY    69  56  62 N3        30.11R
PITTSBURGH INT MOCLDY    77  57  50 N7        30.10R
PITTSBURGH     CLOUDY    75  53  46 N5        30.09R
INDIANA*       CLEAR     64  59  82 CALM      30.13R
LATROBE        CLEAR     66  66 100 CALM      30.10R
WASHINGTON CO* CLEAR     63  61  94 CALM      30.10R
$$

PAZ004>006-010>012-017>019-024>028-033>037-041-042-045-046-049>053-230200-
CENTRAL PENNSYLVANIA

CITY           SKY/WX    TMP DP  RH WIND       PRES   REMARKS
BRADFORD       CLEAR     64  56  75 CALM      30.15R
DUBOIS         CLOUDY    68  52  56 N5        30.12R
CLEARFIELD     CLOUDY    67  53  61 N5        30.11R
JOHNSTOWN      CLEAR     72  49  44 N8        30.13S
ALTOONA        CLEAR     65  58  78 S6        30.09R
STATE COLLEGE  PTCLDY    72  54  53 CALM      30.08R
WILLIAMSPORT   CLOUDY    66  57  72 CALM      30.05R
SELINSGROVE    CLEAR     59  59 100 CALM      30.05R
FT INDIANTOWN  CLEAR     65  56  72 CALM      30.03R
CAPITAL CITY   CLEAR     66  59  78 SW3       30.02R
HARRISBURG     PTCLDY    69  60  73 CALM      30.01R
YORK           CLOUDY    61  61 100 CALM      30.02R
$$

PAZ038>040-043-044-047-048-054-055-060>062-067>071-230200-
EASTERN PENNSYLVANIA

CITY           SKY/WX    TMP DP  RH WIND       PRES   REMARKS
SCRANTON       CLEAR     69  51  52 E5        30.06R
MOUNT POCONO   CLEAR     64  48  56 NW5       30.08R
ALLENTOWN      CLEAR     68  53  58 NW3       30.01R
QUAKERTOWN*    CLEAR     64  59  82 CALM      30.02R
READING        PTCLDY    71  57  61 CALM      30.01R
LANCASTER      CLOUDY    70  60  70 N5        30.02R
COATESVILLE    PTCLDY    73  52  46 N7        30.03R
POTTSTOWN      CLEAR     70  52  52 N5        30.02R
BLUE BELL      PTCLDY    63  61  94 CALM      30.00R
DOYLESTOWN     CLEAR     72  53  51 N3        29.98R
WILLOW GROVE   NOT AVBL
NORTH PHILA    CLEAR     76  57  51 NW5       29.99R
PHILADELPHIA   PTCLDY    75  56  51 N5        29.97R
$$



USA.gov is the U.S. government's official web portal to all federal, state and local government web resources and services.